Content
SEND FEEDBACK

Daily
Averages
Monthly
Summary
Canada

QUEBEC CITY, QUEBEC


Home > North America > Canada > Quebec
Elevation: 72 meters     Latitude: 46 48N     Longitude: 071 23W

WEATHER
 
SELECT A DAY
Number of Records: 196,112;   Date Range: 6/30/96 - 10/29/14
 
SHARE

PRINT THIS DATA

[ ← Previous Day ]
WEATHER ALMANAC - 17 JANUARY, 2013
[ Next Day → ]
[ °F ]   °C
Weather ElementAverageHighLow
Temperature-9.4 °C0 °C (1:00 am)-22 °C (11:00 pm)
Dewpoint-18.3 °C-2.2 °C (4:00 am)-30 °C (7:00 pm)
Humidity54.1 %86 % (5:00 am)26 % (4:00 pm)
Wind Speed23.8 km/h72.3 km/h (6:10 am)
Wind Gust57.5 km/h (5:46 am)
Weather ElementAverage
Visibility25.9 km
Wind DirectionNW (315.7 °)

Weather ElementTotal
Precipitation---
Heating Degree Days29.3 (Base 18.3)
Averaged from 39 records on 17 January, 2013
WEATHER CONDITIONS BREAKOUT
WIND DIRECTION BREAKOUT
WEATHER BY HOUR - 17 JANUARY, 2013
[ °F ]   °C
Local TimeTemperatureDewpointHumidityBarometerVisibilityWind DirectionWind SpeedGust SpeedPrecipitationEventsConditions
1:00 AM0 °C-2.8 °C76 %1004.1 hPaSW (230°)11.1 km/h
1:00 AM0 °C-4 °C75 %1004.4 hPa24.1 kmSW (230°)24.1 km/h33.3 km/hOvercast
2:00 AM0 °C-4 °C75 %1003.7 hPa24.1 kmSW (230°)24.1 km/hOvercast
2:23 AM0 °C-17.8 °C16.1 kmSW (230°)24.1 km/hSnowLight Snow
3:00 AM0 °C-4 °C75 %1003.4 hPa19.3 kmWSW (240°)22.2 km/hSnowLight Snow
4:00 AM0 °C-2.2 °C78 %1003 hPaWSW (240°)16.7 km/h
4:00 AM0 °C-4 °C75 %1003 hPa16.1 kmWSW (240°)27.8 km/h37 km/hSnowLight Snow
4:20 AM-1 °C-17.8 °C4.8 kmWSW (240°)29.6 km/hSnowLight Snow
4:39 AM-1 °C-17.8 °C2.4 kmSW (230°)31.5 km/h46.3 km/hSnowLight Snow
5:00 AM-1 °C-3 °C86 %1003 hPa4 kmSW (230°)33.3 km/hSnowLight Snow
5:15 AM-1 °C-17.8 °C6.4 kmSW (230°)33.3 km/hSnowLight Snow
5:46 AM-1 °C-17.8 °C4 kmSW (230°)44.4 km/h57.5 km/hSnowLight Snow Showers
6:00 AM-1 °C-3 °C86 %1003 hPa4 kmSW (230°)38.9 km/h51.8 km/hSnowLight Snow Showers
6:10 AM-3 °C-17.8 °C0 km29.9 (2013°)72.3 km/h0 mmHeavy Snow Showers300
6:30 AM-4 °C-17.8 °C3.2 kmNW (320°)27.8 km/h53.8 km/hSnowLight Snow Showers
6:40 AM-5 °C-17.8 °C6.4 kmNW (320°)37 km/h46.3 km/hSnowLight Snow Showers
7:00 AM-4.4 °C-8.3 °C64 %1005.8 hPaNW (310°)31.5 km/h
7:00 AM-6 °C-10 °C74 %1006.1 hPa24.1 kmWest (280°)33.3 km/h51.8 km/hOvercast
8:00 AM-6 °C-12 °C63 %1008.1 hPa48.3 kmWest (260°)29.6 km/h38.9 km/hMostly Cloudy
9:00 AM-10 °C-17 °C57 %1011.2 hPa48.3 kmWNW (300°)24.1 km/h35.2 km/hPartly Cloudy
10:00 AM-11.7 °C-19.4 °C37 %1013.5 hPaNW (320°)22.2 km/h
10:00 AM-12 °C-19 °C57 %1013.5 hPa48.3 kmWNW (290°)25.9 km/h35.2 km/hPartly Cloudy
11:00 AM-13 °C-22 °C48 %1015.2 hPa48.3 kmWest (280°)27.8 km/hPartly Cloudy
12:00 PM-13 °C-25 °C37 %1016.6 hPa48.3 kmWest (280°)18.5 km/h33.3 km/hPartly Cloudy
1:00 PM-13.9 °C-23.3 °C29 %1017.6 hPaWest (280°)22.2 km/h
1:00 PM-14 °C-25 °C40 %1017.6 hPa48.3 kmWNW (290°)24.1 km/h33.3 km/hPartly Cloudy
2:00 PM-14 °C-25 °C40 %1019 hPa48.3 kmWNW (300°)16.7 km/h29.6 km/hPartly Cloudy
3:00 PM-15 °C-26 °C40 %1020 hPa48.3 kmWest (270°)20.4 km/hPartly Cloudy
4:00 PM-16 °C-28 °C36 %1020.7 hPa48.3 kmNW (320°)24.1 km/hPartly Cloudy
4:00 PM-16.7 °C-26.7 °C26 %1020.7 hPaWest (280°)24.1 km/h
5:00 PM-18 °C-27 °C46 %1021.7 hPa32.2 kmWest (270°)11.1 km/hPartly Cloudy
6:00 PM-19 °C-29 °C42 %1022.4 hPa32.2 kmSW (230°)7.4 km/hClear
7:00 PM-20 °C-26.7 °C38 %1023.4 hPaWSW (240°)7.4 km/h
7:00 PM-20 °C-30 °C42 %1023.4 hPa32.2 kmWSW (240°)16.7 km/hClear
8:00 PM-21 °C-29 °C50 %1023.7 hPa32.2 kmWest (270°)5.6 km/hClear
9:00 PM-21 °C-30 °C46 %1024.4 hPa32.2 kmWNW (300°)9.3 km/hClear
10:00 PM-21.1 °C-27.2 °C43 %1023.7 hPaNNW (340°)11.1 km/h
10:00 PM-21 °C-30 °C46 %1023.7 hPa24.1 kmNNW (340°)11.1 km/hClear
11:00 PM-22 °C-30 °C50 %1022.7 hPa24.1 kmNNW (340°)7.4 km/hClear
Hourly data recorded from CYQB, located 0 kilometers away from Quebec City, Quebec







STORIES FROM OUR PARTNERS